Regional Weather Roundup
Issued by NWS Wakefield, VA

Home | Current Version | Previous Version | Text Only | Print | Product List | Glossary Off
Versions: 1 2 3 4 5 6 7 8 9 10 11 12 13 14 15 16 17 18 19 20 21 22 23 24 25 26 27 28 29 30 31 32 33 34
000 ASUS41 KAKQ 141615 RWRAKQ REGIONAL WEATHER ROUNDUP NATIONAL WEATHER SERVICE WAKEFIELD VA 1100 AM EST FRI DEC 14 2018 Note: "fair" indicates few or no clouds below 12,000 feet with no significant weather and/or obstructions to visibility. * = Denotes station may not report precipitation (e.g., rain,snow,etc.), thunder or fog. VAZ042-051-052>054-056-141700- NORTHERN VIRGINIA CITY SKY/WX TMP DP RH WIND PRES REMARKS WASH NATIONAL CLOUDY 44 40 85 NE6 30.40F FOG DULLES CLOUDY 42 37 82 CALM 30.39F HAZE FORT BELVOIR CLOUDY 45 39 79 CALM 30.39F QUANTICO CLOUDY 41 38 89 E6 30.41F FREDERICKSBRG* CLOUDY 42 38 86 CALM 30.38F STAFFORD* CLOUDY 43 42 95 CALM 30.43F WARRENTON CLOUDY 41 33 75 E3 30.38F CULPEPER* CLOUDY 40 33 76 CALM 30.39F MANASSAS* CLOUDY 41 35 79 CALM 30.39F LEESBURG* CLOUDY 39 37 93 CALM 30.39F FOG WINCHESTER DRIZZLE 36 32 87 CALM 30.38F FRONT ROYAL* CLOUDY 36 34 93 E8 30.36F LURAY* CLOUDY 36 34 93 CALM 30.36F $$ VAZ048-049-060>072-079>083-141700- CENTRAL AND SOUTH CENTRAL VIRGINIA CITY SKY/WX TMP DP RH WIND PRES REMARKS RICHMOND CLOUDY 40 37 89 CALM 30.37F CHESTERFIELD* CLOUDY 40 37 89 CALM 30.36F PETERSBURG* CLOUDY 37 34 89 NE3 30.37F FOG HANOVER CLOUDY 41 36 82 CALM 30.39F TAPPAHANNOCK* PTSUNNY 42 40 93 CALM 30.38F QUINTON* CLOUDY 39 37 95 CALM 30.37F CHARLOTTSVILLE CLOUDY 38 31 76 CALM 30.38S GORDONSVILLE* CLOUDY 39 35 87 CALM 30.38S ORANGE* CLOUDY 37 32 81 CALM 30.39F LOUISA* CLOUDY 39 32 76 N5 30.42F BUMPASS* CLOUDY 40 37 89 CALM 30.37F FARMVILLE* CLOUDY 39 33 78 N3 30.36F CREWE* CLOUDY 37 36 95 CALM 30.36F FORT PICKETT* CLOUDY 40 39 99 NW6 30.35F CHASE CITY* CLOUDY 41 40 97 CALM 30.34F CLARKSVILLE* CLOUDY 39 39 100 CALM 30.34S SOUTH HILL* CLOUDY 39 39 100 CALM 30.39F LAWRENCEVILLE* CLOUDY 40 39 97 MISG 30.33F EMPORIA* CLOUDY 43 39 87 CALM 30.36F $$ VAZ088>098-141700- SOUTHEAST VIRGINIA CITY SKY/WX TMP DP RH WIND PRES REMARKS NORFOLK FAIR 51 48 89 NE3 30.35F VIRGINIA BEACH PTSUNNY 51 47 86 E7 30.35F NORFOLK NAVAL CLOUDY 50 45 83 E5 30.36F WEST POINT* PTSUNNY 42 41 97 CALM 30.39F SALUDA* FAIR 42 42 100 CALM 30.38F NEWPORT NEWS FAIR 48 44 86 NE5 30.37F LANGLEY AFB MOSUNNY 48 48 99 N5 30.36F FORT EUSTIS NOT AVBL WILLIAMSBURG* FAIR 46 45 93 CALM 30.37F HR EXEC AP* NOT AVBL FRANKLIN* PTSUNNY 44 44 98 NE6 30.35F US460-WAKEFLD CLOUDY 47 42 83 NE3 30.35F $$ VAZ020-022-025-037-045-141700- WEST CENTRAL AND SOUTHWEST VIRGINIA CITY SKY/WX TMP DP RH WIND PRES REMARKS STAUNTON* CLOUDY 34 32 90 CALM 30.37F WAYNESBORO* CLOUDY 36 32 85 CALM 30.35F HOT SPRINGS VA CLOUDY 37 30 75 CALM 30.28F LYNCHBURG LGT RAIN 39 32 76 N8 30.35F DANVILLE LGT RAIN 38 35 89 NE6 30.33F SOUTH BOSTON* CLOUDY 39 38 95 NE3 30.35S MARTINSVILLE DRIZZLE 37 34 87 N6 30.35F ROANOKE CLOUDY 40 34 79 CALM 30.37F BLACKSBURG CLOUDY 38 33 81 E3 30.33F DUBLIN* CLOUDY 39 33 78 E7 30.32S MARION* CLOUDY 38 37 97 E10 30.27F FOG HILLSVILLE* DRZL/FOG 37 36 96 CALM 30.26F VSB 1/2 RICHLANDS* CLOUDY 45 39 80 E7 30.19F WISE* CLOUDY 46 41 81 SE5 30.16S ABINGDON* PTSUNNY 43 37 79 E15 30.17F $$ MDZ021>025-VAZ099-100-141700- SOUTHERN MARYLAND AND THE DELMARVA PENINSULA CITY SKY/WX TMP DP RH WIND PRES REMARKS PATUXENT RIVER FOG 46 45 96 CALM 30.39F VSB 1/2 BAY BRIDGE APT FOG 41 N/A N/A NE5 30.40F VSB 1/4 LEONARDTOWN CLOUDY 43 41 93 CALM 30.40F DOVER CLOUDY 48 47 98 E5 30.39F GEORGETOWN PTSUNNY 56 51 84 S10 30.39F EASTON CLOUDY 48 46 93 S3 30.44F FOG CAMBRIDGE CLOUDY 46 46 100 CALM 30.39F FOG SALISBURY FAIR 50 50 100 E3 30.39F TANGIER CLOUDY 45 45 100 E5 30.37F OCEAN CITY FOG 50 50 100 CALM 30.39F VSB<1/4 WALLOPS ISLAND FOG 48 46 93 NE5 30.38F VSB 1 ACCOMACK* FAIR 49 49 99 CALM 30.38F $$ NCZ012>017-030>032-141700- NORTH CENTRAL AND EASTERN NORTH CAROLINA CITY SKY/WX TMP DP RH WIND PRES REMARKS ROANOKE RAPIDS LGT RAIN 39 39 100 CALM 30.33F RALEIGH LGT RAIN 40 38 93 NE6 30.30F FOG ELIZABETH CITY FAIR 53 47 79 NE6 30.34F AHOSKIE* LGT RAIN 43 42 97 NE3 30.34F EDENTON* NOT AVBL CURRITUCK* FAIR 51 47 88 MISG 30.35F KILL DEVIL HLS FAIR 56 50 80 CALM 30.32F MANTEO FAIR 58 50 74 E9 30.33F CAPE HATTERAS NOT AVBL TARBORO* LGT RAIN 43 41 92 NE5 30.32F GOLDSBORO LGT RAIN 47 43 86 E9 30.27F WASHINGTON DRIZZLE 52 46 82 NE3 30.31F GREENVILLE DRIZZLE 48 45 87 NE3 30.31F NEW BERN PTSUNNY 53 47 79 NE6 30.30F WILMINGTON HVY RAIN 61 59 93 SE6 30.23F FOG $$ VAZ048-141700- ELSEWHERE CITY SKY/WX TMP DP RH WIND PRES REMARKS HARRISBURG PA DRZL/FOG 38 37 97 CALM 30.39F VSB<1/4 BALTIMORE FOG 43 43 100 E5 30.39F VSB 3/4 ANNAPOLIS CLOUDY 46 42 86 CALM 30.40F FOG ANDREWS AFB FAIR 43 40 92 CALM 30.38F PHILADELPHIA CLOUDY 47 43 86 E8 30.42F HENDERSON NC LGT RAIN 37 36 95 CALM 30.32F GREENSBORO CLOUDY 37 36 96 NE14 30.27F FOG ROCKY MOUNT LGT RAIN 44 41 89 NE6 30.31F $$ VAZ100-141700- MARINE STATION/POSITION TIME TEMP WIND PRES WAVE SWELL AIR SEA DIR/SP/G HT/PER HT/PER (UTC) (F) (DEG/KT/KT) (MB) (FT/S) (FT/S) BRANDYWINE LGT 1518 1030.5 CAPE MAY NJ 1548 120/ 8/ 10 1029.0F LEWES DE 1536 52 170/ 6/ 8 1029.6F 15NM E FENWICK I 1550 49 1029.3F 5/ 7 OCEAN-CITY-INLET 1536 48 45 110/ 2/ 3 1029.8F WACHAPREAGUE VA 1548 50/ 3/ 5 1028.4F THOMAS POINT MD 1500 41 42 360/ 6/ 6 1031.0F COVE POINT MD 1536 40 360/ 5/ 6 1030.1F SOLOMONS ISLAND 1548 42 43 CALM / 1 1029.1F BISHOPS HEAD MD 1548 20/ 1/ 4 1029.5F PINEY POINT MD 1536 340/ 3/ 3 N/A POTOMAC MD 1530 41 320/ 4/ 6 1028.9R CAMBRIDGE MD 1536 43 40 1029.4F LEWISETTA VA 1536 42 42 340/ 4/ 5 1029.4F RAPPAHANNOCK LGT 1548 80/ 7/ 7 1029.2F STINGRAY PT 1540 43 30/ 4/ 4 1029.9F YORK RVR RNG VA 1548 44 360/ 6/ 6 1028.9F YORKTOWN VA 1548 42 44 310/ 4/ 5 1028.0F DOMINION TERM VA 1536 46 120/ 2/ 4 1028.7F KIPTOPEKE VA 1536 45 80/ 10/ 12 N/A CAPE HENRY VA 1548 45 80/ 7/ 8 1026.6F WILLOUBY STN VA 1536 45 50/ 5/ 7 1027.8F S CRANEY ISL VA 1548 360/ 3/ 4 1028.1F CAPE HENRY BUOY 1600 49 N/A 3/11 2/11 1ST LANDING BUOY 1600 45 44 100/ 10/ 12 1027.7 1/ 4 64NM E OF VA BCH 1550 55 53 80/ 6/ 8 1028.6F 3/12 3/12 DUCK PIER NC 1548 50 46 60/ 13/ 13 1026.9F 44100 DUCK FRF 1545 52 N/A 2/12 2/12 44056 DUCK FRF 1600 45 N/A 2/11 2/11 OREGON INLET NC 1536 55 48 40/ 7/ 9 1027.2F HATTERAS NC 1536 61 53 120/ 8/ 12 1026.1F $$

USA.gov is the U.S. government's official web portal to all federal, state and local government web resources and services.